TimeCST,TemperatureF,Dew PointF,Humidity,Sea Level PressureIn,VisibilityMPH,Wind Direction,Wind SpeedMPH,Gust SpeedMPH,PrecipitationIn,Events,Conditions,WindDirDegrees,DateUTC
12:13 AM,6.8,3.2,85,30.37,7.0,Calm,Calm,-,N/A,Snow,Light Snow,0,2012-12-05 06:13:00
12:33 AM,5.0,1.4,85,30.36,10.0,Calm,Calm,-,N/A,,Clear,0,2012-12-05 06:33:00
12:53 AM,5.0,1.4,85,30.36,10.0,Calm,Calm,-,N/A,,Clear,0,2012-12-05 06:53:00
1:13 AM,5.0,1.4,85,30.36,10.0,Calm,Calm,-,N/A,,Clear,0,2012-12-05 07:13:00
1:33 AM,3.2,-0.4,85,30.36,10.0,Calm,Calm,-,N/A,,Clear,0,2012-12-05 07:33:00
1:53 AM,3.2,-0.4,85,30.35,10.0,Calm,Calm,-,N/A,,Clear,0,2012-12-05 07:53:00
2:13 AM,3.2,-0.4,85,30.34,10.0,Calm,Calm,-,N/A,,Clear,0,2012-12-05 08:13:00
2:34 AM,3.2,-0.4,85,30.35,10.0,Calm,Calm,-,N/A,,Clear,0,2012-12-05 08:34:00
2:53 AM,3.2,-0.4,85,30.37,10.0,Calm,Calm,-,N/A,,Clear,0,2012-12-05 08:53:00
3:13 AM,3.2,-0.4,85,30.35,10.0,Calm,Calm,-,N/A,,Clear,0,2012-12-05 09:13:00
3:33 AM,3.2,-0.4,85,30.34,10.0,Calm,Calm,-,N/A,,Clear,0,2012-12-05 09:33:00
3:53 AM,3.2,-0.4,85,30.33,10.0,Calm,Calm,-,N/A,,Clear,0,2012-12-05 09:53:00
4:13 AM,3.2,-0.4,85,30.32,10.0,Calm,Calm,-,N/A,,Clear,0,2012-12-05 10:13:00
4:33 AM,3.2,-0.4,85,30.31,10.0,Calm,Calm,-,N/A,,Clear,0,2012-12-05 10:33:00
4:53 AM,3.2,-0.4,85,30.31,10.0,Calm,Calm,-,N/A,,Clear,0,2012-12-05 10:53:00
5:13 AM,3.2,-0.4,85,30.31,10.0,Calm,Calm,-,N/A,,Clear,0,2012-12-05 11:13:00
5:33 AM,5.0,1.4,85,30.30,10.0,Calm,Calm,-,N/A,,Clear,0,2012-12-05 11:33:00
5:53 AM,6.8,3.2,85,30.30,10.0,Calm,Calm,-,N/A,,Clear,0,2012-12-05 11:53:00
6:13 AM,8.6,5.0,85,30.28,10.0,East,4.6,-,N/A,,Clear,90,2012-12-05 12:13:00
6:33 AM,10.4,6.8,85,30.29,10.0,Calm,Calm,-,N/A,,Clear,0,2012-12-05 12:33:00
6:53 AM,10.4,6.8,85,30.30,10.0,Calm,Calm,-,N/A,,Clear,0,2012-12-05 12:53:00
8:33 AM,14.0,10.4,86,30.28,10.0,SSE,6.9,-,N/A,,Clear,150,2012-12-05 14:33:00
8:54 AM,15.8,10.4,79,30.25,10.0,SE,8.1,-,N/A,,Clear,140,2012-12-05 14:54:00
9:13 AM,15.8,12.2,86,30.25,10.0,SSE,5.8,-,N/A,,Clear,150,2012-12-05 15:13:00
9:33 AM,15.8,12.2,86,30.24,10.0,SSE,10.4,-,N/A,,Clear,160,2012-12-05 15:33:00
9:53 AM,19.4,14.0,80,30.22,10.0,SSE,12.7,19.6,N/A,,Clear,160,2012-12-05 15:53:00
10:13 AM,19.4,12.2,74,30.21,10.0,SSE,9.2,18.4,N/A,,Clear,160,2012-12-05 16:13:00
10:33 AM,19.4,12.2,74,30.20,10.0,SSE,12.7,19.6,N/A,,Clear,160,2012-12-05 16:33:00
10:53 AM,21.2,14.0,74,30.18,10.0,SSE,11.5,18.4,N/A,,Clear,160,2012-12-05 16:53:00
11:13 AM,23.0,14.0,68,30.17,10.0,SSE,12.7,21.9,N/A,,Clear,160,2012-12-05 17:13:00
11:33 AM,23.0,12.2,63,30.16,10.0,South,11.5,21.9,N/A,,Clear,170,2012-12-05 17:33:00
11:53 AM,23.0,12.2,63,30.13,10.0,SSE,13.8,19.6,N/A,,Clear,150,2012-12-05 17:53:00
12:13 PM,24.8,12.2,59,30.12,10.0,SSE,10.4,20.7,N/A,,Scattered Clouds,150,2012-12-05 18:13:00
12:33 PM,24.8,12.2,59,30.10,10.0,SSE,10.4,20.7,N/A,,Clear,150,2012-12-05 18:33:00
12:53 PM,24.8,12.2,59,30.09,10.0,SSE,9.2,-,N/A,,Clear,150,2012-12-05 18:53:00
1:13 PM,24.8,12.2,59,30.07,10.0,SE,12.7,18.4,N/A,,Clear,140,2012-12-05 19:13:00
1:33 PM,24.8,12.2,59,30.05,10.0,SE,8.1,-,N/A,,Clear,140,2012-12-05 19:33:00
1:53 PM,26.6,12.2,55,30.03,10.0,SE,10.4,-,N/A,,Clear,140,2012-12-05 19:53:00
2:13 PM,26.6,12.2,55,30.01,10.0,SE,12.7,17.3,N/A,,Clear,130,2012-12-05 20:13:00
2:33 PM,26.6,12.2,55,30.00,10.0,SE,11.5,17.3,N/A,,Clear,130,2012-12-05 20:33:00
2:53 PM,26.6,12.2,55,29.98,10.0,SSE,8.1,-,N/A,,Clear,150,2012-12-05 20:53:00
3:13 PM,26.6,12.2,55,29.96,10.0,SE,12.7,19.6,N/A,,Scattered Clouds,140,2012-12-05 21:13:00
3:33 PM,28.4,12.2,51,29.94,10.0,SE,11.5,19.6,N/A,,Scattered Clouds,140,2012-12-05 21:33:00
3:53 PM,28.4,12.2,51,29.92,10.0,SE,12.7,18.4,N/A,,Clear,140,2012-12-05 21:53:00
4:13 PM,28.4,14.0,55,29.91,10.0,SSE,10.4,21.9,N/A,,Clear,150,2012-12-05 22:13:00
4:33 PM,28.4,14.0,55,29.91,10.0,SSE,13.8,18.4,N/A,,Clear,150,2012-12-05 22:33:00
4:53 PM,28.4,14.0,55,29.89,10.0,SSE,13.8,21.9,N/A,,Clear,160,2012-12-05 22:53:00
5:13 PM,28.4,14.0,55,29.88,10.0,SSE,13.8,20.7,N/A,,Clear,160,2012-12-05 23:13:00
5:33 PM,28.4,15.8,59,29.87,10.0,SSE,11.5,17.3,N/A,,Clear,160,2012-12-05 23:33:00
5:53 PM,28.4,15.8,59,29.86,10.0,SSE,10.4,17.3,N/A,,Clear,160,2012-12-05 23:53:00
6:14 PM,28.4,15.8,59,29.86,10.0,South,9.2,17.3,N/A,,Clear,170,2012-12-06 00:14:00
6:33 PM,28.4,15.8,59,29.85,10.0,South,13.8,21.9,N/A,,Clear,170,2012-12-06 00:33:00
6:53 PM,28.4,15.8,59,29.84,10.0,South,12.7,18.4,N/A,,Clear,170,2012-12-06 00:53:00
7:13 PM,28.4,15.8,59,29.83,10.0,South,11.5,23.0,N/A,,Clear,170,2012-12-06 01:13:00
7:33 PM,28.4,15.8,59,29.82,10.0,South,15.0,20.7,N/A,,Clear,170,2012-12-06 01:33:00
7:53 PM,30.2,15.8,55,29.81,10.0,South,10.4,18.4,N/A,,Clear,170,2012-12-06 01:53:00
8:13 PM,30.2,15.8,55,29.80,10.0,South,15.0,19.6,N/A,,Clear,170,2012-12-06 02:13:00
8:33 PM,30.2,15.8,55,29.79,10.0,South,10.4,23.0,N/A,,Clear,170,2012-12-06 02:33:00
8:53 PM,30.2,15.8,55,29.77,10.0,South,16.1,21.9,N/A,,Clear,170,2012-12-06 02:53:00
9:13 PM,30.2,17.6,60,29.76,10.0,South,13.8,21.9,N/A,,Clear,170,2012-12-06 03:13:00
9:33 PM,30.2,17.6,60,29.75,10.0,South,16.1,19.6,N/A,,Clear,170,2012-12-06 03:33:00
9:53 PM,30.2,17.6,60,29.74,10.0,South,15.0,21.9,N/A,,Clear,170,2012-12-06 03:53:00
10:13 PM,32.0,17.6,55,29.73,10.0,South,13.8,19.6,N/A,,Clear,170,2012-12-06 04:13:00
10:33 PM,32.0,17.6,55,29.73,10.0,South,11.5,20.7,N/A,,Clear,190,2012-12-06 04:33:00
10:53 PM,33.8,19.4,56,29.72,10.0,South,13.8,-,N/A,,Clear,170,2012-12-06 04:53:00
11:13 PM,33.8,19.4,56,29.72,10.0,South,11.5,-,N/A,,Clear,180,2012-12-06 05:13:00
11:33 PM,33.8,19.4,56,29.71,10.0,South,11.5,19.6,N/A,,Clear,190,2012-12-06 05:33:00
11:53 PM,33.8,19.4,56,29.71,10.0,South,15.0,23.0,N/A,,Clear,180,2012-12-06 05:53:00